TimeCDT,TemperatureF,Dew PointF,Humidity,Sea Level PressureIn,VisibilityMPH,Wind Direction,Wind SpeedMPH,Gust SpeedMPH,PrecipitationIn,Events,Conditions,WindDirDegrees,DateUTC
12:15 AM,26.6,19.4,74,30.11,10.0,Calm,Calm,-,N/A,,Clear,0,2013-03-30 05:15:00
12:35 AM,26.6,19.4,74,30.11,10.0,Calm,Calm,-,N/A,,Clear,0,2013-03-30 05:35:00
12:55 AM,28.4,19.4,69,30.11,10.0,Calm,Calm,-,N/A,,Clear,0,2013-03-30 05:55:00
1:15 AM,24.8,19.4,80,30.11,10.0,Calm,Calm,-,N/A,,Clear,0,2013-03-30 06:15:00
1:35 AM,24.8,19.4,80,30.10,10.0,Calm,Calm,-,N/A,,Scattered Clouds,0,2013-03-30 06:35:00
1:55 AM,26.6,21.2,80,30.09,10.0,SSW,3.5,-,N/A,,Mostly Cloudy,200,2013-03-30 06:55:00
2:15 AM,30.2,19.4,64,30.09,10.0,Calm,Calm,-,N/A,,Overcast,0,2013-03-30 07:15:00
2:35 AM,32.0,19.4,60,30.07,10.0,Calm,Calm,-,N/A,,Overcast,0,2013-03-30 07:35:00
2:55 AM,30.2,19.4,64,30.06,10.0,Calm,Calm,-,N/A,,Overcast,0,2013-03-30 07:55:00
3:15 AM,30.2,19.4,64,30.06,10.0,Calm,Calm,-,N/A,,Overcast,0,2013-03-30 08:15:00
3:35 AM,28.4,19.4,69,30.05,10.0,Calm,Calm,-,N/A,,Mostly Cloudy,0,2013-03-30 08:35:00
3:55 AM,30.2,19.4,64,30.04,10.0,Calm,Calm,-,N/A,,Mostly Cloudy,0,2013-03-30 08:55:00
4:15 AM,32.0,19.4,60,30.03,10.0,Calm,Calm,-,N/A,,Overcast,0,2013-03-30 09:15:00
4:35 AM,32.0,19.4,60,30.02,10.0,Calm,Calm,-,N/A,,Scattered Clouds,0,2013-03-30 09:35:00
4:55 AM,30.2,21.2,69,30.02,10.0,Calm,Calm,-,N/A,,Scattered Clouds,0,2013-03-30 09:55:00
5:15 AM,32.0,21.2,64,30.01,10.0,Calm,Calm,-,N/A,,Mostly Cloudy,0,2013-03-30 10:15:00
5:35 AM,32.0,21.2,64,30.01,10.0,SSW,3.5,-,N/A,,Overcast,200,2013-03-30 10:35:00
5:55 AM,32.0,21.2,64,30.01,10.0,SSW,3.5,-,N/A,,Overcast,210,2013-03-30 10:55:00
6:15 AM,32.0,24.8,75,30.01,7.0,SSW,3.5,-,N/A,,Overcast,210,2013-03-30 11:15:00
6:35 AM,32.0,28.4,87,30.01,4.0,SSW,3.5,-,N/A,Snow,Light Snow,210,2013-03-30 11:35:00
6:55 AM,32.0,30.2,93,30.01,5.0,SSW,3.5,-,0.01,,Overcast,200,2013-03-30 11:55:00
7:15 AM,32.0,32.0,100,29.99,3.0,South,3.5,-,0.01,Snow,Light Snow,180,2013-03-30 12:15:00
7:35 AM,33.8,32.0,93,29.97,4.0,South,5.8,-,0.03,,Overcast,190,2013-03-30 12:35:00
7:55 AM,33.8,32.0,93,29.95,3.0,South,5.8,-,0.04,,Overcast,180,2013-03-30 12:55:00
8:15 AM,33.8,32.0,93,29.94,2.5,South,4.6,-,0.01,,Overcast,190,2013-03-30 13:15:00
8:35 AM,33.8,32.0,93,29.93,2.5,South,4.6,-,0.02,,Overcast,170,2013-03-30 13:35:00
8:55 AM,33.8,32.0,93,29.91,3.0,SSE,6.9,-,0.03,,Overcast,160,2013-03-30 13:55:00
9:15 AM,33.8,32.0,93,29.91,3.0,South,9.2,16.1,N/A,,Overcast,180,2013-03-30 14:15:00
9:35 AM,33.8,32.0,93,29.90,2.0,South,9.2,-,N/A,Snow,Light Snow,180,2013-03-30 14:35:00
9:55 AM,33.8,32.0,93,29.89,1.2,South,10.4,16.1,0.01,Snow,Light Snow,170,2013-03-30 14:55:00
10:15 AM,33.8,32.0,93,29.87,1.2,South,9.2,-,N/A,Snow,Light Snow,180,2013-03-30 15:15:00
10:35 AM,33.8,32.0,93,29.87,0.8,South,8.1,-,N/A,Snow,Light Snow,180,2013-03-30 15:35:00
10:55 AM,33.8,32.0,93,29.86,1.0,South,8.1,-,N/A,Snow,Light Snow,190,2013-03-30 15:55:00
11:15 AM,33.8,32.0,93,29.85,1.8,South,8.1,-,0.01,Snow,Light Snow,190,2013-03-30 16:15:00
11:35 AM,33.8,32.0,93,29.85,1.8,South,6.9,-,0.02,Snow,Light Snow,190,2013-03-30 16:35:00
11:55 AM,33.8,32.0,93,29.84,1.8,South,5.8,-,0.03,Snow,Light Snow,190,2013-03-30 16:55:00
12:15 PM,33.8,32.0,93,29.84,2.5,SSW,5.8,-,N/A,Snow,Light Snow,210,2013-03-30 17:15:00
12:35 PM,33.8,32.0,93,29.83,2.0,SSW,5.8,-,N/A,Snow,Light Snow,210,2013-03-30 17:35:00
12:55 PM,33.8,32.0,93,29.83,3.0,SSW,6.9,-,N/A,Snow,Light Snow,200,2013-03-30 17:55:00
1:15 PM,33.8,33.8,100,29.82,1.5,SSW,6.9,-,N/A,,Overcast,210,2013-03-30 18:15:00
1:35 PM,33.8,33.8,100,29.82,1.2,SSW,9.2,-,N/A,,Light Drizzle,210,2013-03-30 18:35:00
1:55 PM,35.6,33.8,93,29.81,1.2,SW,11.5,-,N/A,Rain,Rain,220,2013-03-30 18:55:00
2:15 PM,35.6,33.8,93,29.81,1.5,SW,5.8,18.4,N/A,Rain,Light Rain,220,2013-03-30 19:15:00
2:35 PM,35.6,33.8,93,29.80,1.5,SSW,5.8,-,N/A,,Overcast,210,2013-03-30 19:35:00
2:55 PM,35.6,33.8,93,29.79,1.8,SSW,4.6,-,N/A,,Overcast,210,2013-03-30 19:55:00
3:15 PM,35.6,33.8,93,29.79,1.5,SW,4.6,-,N/A,,Overcast,230,2013-03-30 20:15:00
3:35 PM,35.6,35.6,100,29.79,1.5,SW,5.8,-,N/A,,Overcast,220,2013-03-30 20:35:00
3:55 PM,35.6,35.6,100,29.79,1.5,SW,5.8,-,N/A,,Overcast,220,2013-03-30 20:55:00
4:15 PM,35.6,35.6,100,29.79,1.2,SW,4.6,-,N/A,,Overcast,230,2013-03-30 21:15:00
4:35 PM,35.6,35.6,100,29.79,1.0,WSW,5.8,-,N/A,,Overcast,240,2013-03-30 21:35:00
4:55 PM,35.6,35.6,100,29.78,0.8,SW,3.5,-,N/A,,Overcast,220,2013-03-30 21:55:00
5:15 PM,35.6,35.6,100,29.77,0.8,SW,5.8,-,N/A,,Overcast,230,2013-03-30 22:15:00
5:35 PM,37.4,35.6,93,29.77,1.0,WSW,3.5,-,N/A,,Overcast,250,2013-03-30 22:35:00
5:55 PM,37.4,35.6,93,29.77,2.0,WSW,4.6,-,N/A,,Overcast,250,2013-03-30 22:55:00
6:15 PM,37.4,35.6,93,29.77,3.0,WSW,3.5,-,N/A,,Overcast,250,2013-03-30 23:15:00
6:35 PM,37.4,35.6,93,29.77,4.0,WSW,3.5,-,N/A,,Overcast,240,2013-03-30 23:35:00
6:55 PM,37.4,35.6,93,29.77,3.0,WSW,3.5,-,N/A,,Overcast,240,2013-03-30 23:55:00
7:15 PM,37.4,35.6,93,29.77,3.0,Calm,Calm,-,N/A,,Overcast,0,2013-03-31 00:15:00
7:35 PM,37.4,35.6,93,29.77,4.0,Calm,Calm,-,N/A,,Overcast,0,2013-03-31 00:35:00
7:55 PM,35.6,35.6,100,29.76,4.0,WSW,5.8,-,N/A,,Overcast,240,2013-03-31 00:55:00
8:15 PM,35.6,35.6,100,29.76,4.0,WSW,3.5,-,N/A,,Overcast,250,2013-03-31 01:15:00
8:35 PM,35.6,35.6,100,29.76,4.0,Calm,Calm,-,N/A,,Overcast,0,2013-03-31 01:35:00
8:55 PM,35.6,35.6,100,29.76,3.0,West,3.5,-,N/A,,Overcast,260,2013-03-31 01:55:00
9:15 PM,35.6,35.6,100,29.76,3.0,WSW,3.5,-,N/A,,Overcast,240,2013-03-31 02:15:00
9:35 PM,35.6,35.6,100,29.76,2.0,WSW,4.6,-,N/A,,Overcast,240,2013-03-31 02:35:00
9:55 PM,35.6,35.6,100,29.76,1.0,SW,3.5,-,N/A,,Overcast,220,2013-03-31 02:55:00
10:15 PM,35.6,33.8,93,29.75,0.8,SW,3.5,-,N/A,,Overcast,230,2013-03-31 03:15:00
10:35 PM,35.6,33.8,93,29.75,0.5,WSW,3.5,-,N/A,Fog,Fog,240,2013-03-31 03:35:00
10:55 PM,35.6,33.8,93,29.74,0.5,WSW,4.6,-,N/A,Fog,Fog,240,2013-03-31 03:55:00
11:15 PM,35.6,33.8,93,29.74,0.8,WSW,6.9,-,N/A,,Overcast,240,2013-03-31 04:15:00
11:35 PM,35.6,33.8,93,29.73,0.8,WSW,5.8,-,N/A,,Overcast,250,2013-03-31 04:35:00
11:55 PM,35.6,35.6,100,29.72,1.0,West,5.8,-,N/A,,Overcast,260,2013-03-31 04:55:00